Regional Weather Roundup
Issued by NWS

Home | Current Version | Previous Version | Text Only | Print | Product List | Glossary On
Versions: 1 2 3 4 5 6 7 8 9 10 11 12 13 14 15 16 17 18 19 20 21 22 23 24 25 26 27 28 29 30 31 32 33 34 35 36 37 38 39 40 41 42 43 44 45 46 47 48 49 50
000
ASUS43 KBIS 300110
RWRND

NORTH DAKOTA REGIONAL WEATHER ROUNDUP
NATIONAL WEATHER SERVICE BISMARCK ND
800 PM CDT MON JUN 29 2015

NOTE: "FAIR" INDICATES FEW OR NO CLOUDS BELOW 12,000 FEET WITH NO
SIGNIFICANT WEATHER AND/OR OBSTRUCTIONS TO VISIBILITY.


NDZ001>003-009>011-017-300200-
NORTHWEST NORTH DAKOTA

CITY           SKY/WX    TMP DP  RH WIND       PRES   REMARKS
WILLISTON      MOSUNNY   87  55  33 NE14      29.93R
MINOT          MOSUNNY   79  66  64 E6        29.89S HAZE
MINOT AFB      SUNNY     82  68  60 E6        29.89R
$$

NDZ018>021-031>035-040>046-300200-
SOUTHWEST NORTH DAKOTA

CITY           SKY/WX    TMP DP  RH WIND       PRES   REMARKS
BISMARCK       SUNNY     85  64  49 E5        29.89F
DICKINSON      SUNNY     86  65  49 W7        29.89F
GARRISON         N/A     86  59  39 E3        29.90S
HETTINGER ARPT SUNNY     87  69  54 CALM      29.94F HX  91
$$

NDZ004>008-012>016-024-026-027-054-300200-
NORTHEAST NORTH DAKOTA

CITY           SKY/WX    TMP DP  RH WIND       PRES   REMARKS
GRAND FORKS    CLOUDY    71  64  78 N8        29.88S
GRND FRKS AFB  SUNNY     71  62  74 N9        29.90R
DEVILS LAKE    MOSUNNY   72  59  64 NE7       29.92S
$$

NDZ022-023-025-028>030-036>039-047>053-300200-
SOUTHEAST NORTH DAKOTA

CITY           SKY/WX    TMP DP  RH WIND       PRES   REMARKS
FARGO          SUNNY     73  64  73 NW10      29.87R
JAMESTOWN      PTSUNNY   77  64  64 NE5       29.90F
$$



USA.gov is the U.S. government's official web portal to all federal, state and local government web resources and services.